RH
57 56 60 66 67 74 75 81 87 91 95 96 96 96 92 89 88 97 96 96 97 97 95 88 85 90 93 93 92 89 85 84 86 86 83 80 74 72 72 72 70 69 67 63
61 58 57 58 57 56 65 66 81 88 91 91 89 89 84 80 81 85 89 90 92 94 94 96 96 91 88 85 85 83 81 81 82 79 77 73 69 70 71 70 69 68 68 66
61 60 64 62 58 55 58 59 66 71 80 77 78 80 80 73 72 76 75 76 81 85 87 88 87 90 91 89 86 84 82 78 76 77 76 73 68 70 72 72 72 71 69 67
55 54 62 55 49 52 51 47 53 59 61 61 62 66 67 67 69 71 73 68 64 67 70 75 80 82 83 85 86 84 81 80 76 73 74 72 73 77 75 74 74 74 74 73
59 50 56 59 53 53 57 55 58 60 60 58 57 53 50 59 62 61 58 56 60 63 62 61 63 67 71 75 80 84 86 83 78 76 70 66 70 72 75 76 78 77 76 74
63 61 57 59 58 63 64 61 63 72 76 75 67 62 48 50 45 41 47 51 53 58 58 57 57 56 59 61 67 74 80 89 86 77 73 70 64 67 75 77 78 78 77 75
68 71 61 61 66 73 72 67 70 73 72 74 69 60 47 45 49 54 52 53 55 56 55 53 52 51 53 55 57 60 70 76 84 86 82 75 64 58 61 69 74 74 75 73
78 77 70 69 77 80 75 76 72 68 66 61 52 41 42 47 50 56 63 64 63 58 53 51 51 48 50 52 56 55 56 63 71 79 86 84 75 62 57 59 64 66 69 69
75 73 72 77 78 81 89 83 74 64 58 43 33 32 37 39 41 49 57 67 72 69 68 67 66 66 60 59 58 54 52 55 59 71 82 85 84 77 65 59 61 59 60 62
69 69 73 79 83 91 97 90 70 57 39 32 33 31 31 31 34 41 49 61 74 76 73 70 71 71 70 69 67 63 57 55 57 60 75 84 85 82 79 76 65 61 63 62
74 73 82 87 94 97 97 88 58 37 32 32 33 32 34 33 33 35 39 48 64 80 78 78 80 78 74 73 73 71 71 65 61 60 69 79 86 85 85 84 75 67 66 67
81 84 91 93 96 95 92 65 35 31 34 35 38 40 40 38 39 39 39 41 47 67 83 81 85 87 87 86 84 81 78 79 75 68 71 82 87 89 88 82 81 81 77 70
87 91 95 98 97 94 80 41 32 32 36 40 41 43 45 43 42 42 43 42 45 49 72 84 87 94 95 95 93 90 85 91 88 79 80 91 92 89 88 86 92 94 86 76
93 97 95 97 98 89 65 35 34 34 39 42 44 44 47 48 46 44 44 45 46 48 53 77 90 93 96 97 96 97 93 91 92 84 88 94 98 94 91 96 97 95 87 78
97 98 99 99 91 79 49 34 35 38 41 43 45 48 52 53 49 46 47 48 48 49 53 59 89 97 98 99 99 98 99 97 91 88 90 93 98 95 97 97 94 91 86 82
99 98 97 90 80 63 36 36 40 43 47 51 57 59 59 54 50 49 50 51 51 52 55 59 71 98 99 99 99 98 99 99 99 93 91 92 95 99 99 97 93 90 87 82
92 90 83 72 62 43 37 45 50 54 58 65 65 61 55 53 50 50 51 54 55 55 58 60 65 86 99 99 99 99 99 99 99 99 97 95 97 99 99 99 96 92 87 81
79 76 70 62 52 46 51 56 60 64 69 64 59 58 56 55 53 53 53 55 56 56 59 61 64 73 95 99 99 99 99 99 99 99 99 99 96 97 99 98 98 95 90 87
72 68 64 54 47 52 57 60 62 66 66 63 61 59 57 58 57 57 59 61 61 61 59 62 65 70 81 99 99 99 99 99 99 99 99 99 99 98 97 98 99 97 92 87
67 60 50 45 48 54 57 60 62 63 64 65 65 62 59 59 59 60 62 63 63 63 64 64 67 71 75 90 100 99 99 99 99 99 99 99 99 99 97 97 97 98 92 86
54 44 43 46 50 54 59 62 64 65 66 69 70 69 66 65 64 65 64 62 64 62 66 67 69 74 76 84 96 99 99 99 99 99 100 99 99 99 99 99 99 99 94 88
42 42 46 51 55 58 64 68 72 73 76 78 78 77 73 72 71 67 63 66 66 66 69 71 71 77 79 84 85 99 99 99 99 99 99 100 99 99 99 99 99 99 97 94
47 50 54 57 62 66 69 73 76 77 78 80 81 80 78 77 77 72 62 62 67 70 74 73 74 77 80 85 84 93 99 100 100 100 100 100 100 100 100 99 99 97 95 93
51 55 59 62 66 71 75 77 78 81 82 83 85 85 84 81 78 74 67 63 63 68 72 75 77 78 80 85 85 88 96 100 100 100 100 100 100 100 100 100 99 95 93 90
57 61 64 68 72 76 80 85 87 89 90 88 86 86 87 87 84 78 73 70 69 67 62 67 74 78 79 81 87 87 93 97 100 100 100 100 100 100 100 98 98 98 95 91
62 65 69 73 78 82 85 89 94 96 98 97 94 93 91 89 84 81 78 77 76 73 69 65 68 72 79 79 81 87 88 95 98 100 100 100 100 99 96 97 98 95 91 87
67 71 74 78 82 86 90 94 96 98 99 100 99 98 95 92 88 86 85 83 83 79 74 72 69 74 76 80 78 81 89 93 96 97 100 99 98 97 99 100 98 96 92 86